Regional Weather Roundup
Issued by NWS

Home | Current Version | Previous Version | Graphics & Text | Print | Product List | Glossary On
Versions: 1 2 3 4 5 6 7 8 9 10 11 12 13 14 15 16 17 18 19 20 21 22 23 24 25 26 27 28 29 30 31 32 33 34 35 36 37 38 39 40 41 42 43 44 45 46 47 48 49 50
000
ASUS43 KIND 282359
RWRIN

WEATHER ROUNDUP FOR INDIANA
NATIONAL WEATHER SERVICE INDIANAPOLIS IN
800 PM EDT FRI AUG 28 2015

NOTE: "FAIR" INDICATES FEW OR NO CLOUDS BELOW 12,000 FEET WITH NO
SIGNIFICANT WEATHER AND/OR OBSTRUCTIONS TO VISIBILITY.

* - STATION DOES NOT REPORT WEATHER SUCH AS PRECIPITATION OR FOG.

+ - STATION NOT QUALITY CONTROLLED BY THE NATIONAL WEATHER SERVICE.
    USE DATA WITH CAUTION...ESPECIALLY DEWPOINT AND RELATIVE
    HUMIDITY OBSERVATIONS.

INZ001>003-010>013-019-020-290100-
NORTHWEST INDIANA

CITY           SKY/WX    TMP DP  RH WIND       PRES   REMARKS
GARY /AIRPORT/ CLOUDY    72  61  68 VRB5      30.07F
KNOX *+        CLOUDY    70  61  73 SE5       30.07F
MONTICELLO +   CLOUDY    73  61  66 CALM      30.07S
6HR MIN TEMP:  73; 6HR MAX TEMP:  77;

RENSSELAER +   CLOUDY    72  63  73 E3        30.08S

$$

LMZ046-743>745-290100-
SOUTHERN LAKE MICHIGAN

STATION/POSITION TIME  TEMP    WIND        PRES    WAVE
                       AIR SEA DIR/SP/G            HT
                 (UTC) (F)     (DEG/KT/KT) (MB)    (FT)
BURNS HARBOR     2300   71      70/  9/ 10 1018.6F
MICHIGAN CITY    2300   70      40/  7/  7   N/A
5NW MICH CITY    2300   71 71   70/  6/  6   N/A     0

$$

INZ004-005-014>016-021>024-290100-
NORTH CENTRAL INDIANA

CITY           SKY/WX    TMP DP  RH WIND       PRES   REMARKS
ELKHART        CLOUDY    72  63  73 CALM      30.10F
GOSHEN         CLOUDY    72  62  71 SE3       30.10S
6HR MIN TEMP:  72; 6HR MAX TEMP:  78;

SOUTH BEND     LGT RAIN  73  61  65 SE5       30.09F
6HR MIN TEMP:  73; 6HR MAX TEMP:  77; 6HR PCP: TRACE;

WARSAW +       CLOUDY    70  61  73 CALM      30.10F

$$

INZ006>009-017-018-025>027-290100-
NORTHEAST INDIANA

CITY           SKY/WX    TMP DP  RH WIND       PRES   REMARKS
ANGOLA *+      CLEAR     72  63  73 CALM      30.12S
AUBURN +       CLOUDY    70  61  73 CALM      30.12S
FORT WAYNE     CLOUDY    72  61  68 SE5       30.12S
6HR MIN TEMP:  72; 6HR MAX TEMP:  78;


$$

INZ028-029-035-036-043>045-051>053-290100-
WEST CENTRAL INDIANA

CITY           SKY/WX    TMP DP  RH WIND       PRES   REMARKS
CRAWFORDSVL +  CLOUDY    69  56  62 SE3       30.08F
6HR MIN TEMP:  69; 6HR MAX TEMP:  76;

GREENCASTLE +  MOCLDY    70  57  64 SE3       30.09F
LAFAYETTE      CLOUDY    74  57  55 SE5       30.07F
6HR MIN TEMP:  73; 6HR MAX TEMP:  80;

TERRE HAUTE    MOCLDY    73  59  61 E5        30.07F
6HR MIN TEMP:  73; 6HR MAX TEMP:  81;


$$

INZ030>032-037>040-046>048-054>057-064-065-290100-
CENTRAL INDIANA

CITY           SKY/WX    TMP DP  RH WIND       PRES   REMARKS
FRANKFORT +    MOCLDY    69  62  77 E5        30.10F
6HR MIN TEMP:  69; 6HR MAX TEMP:  79;

GREENWOOD *+   CLEAR     73  54  49 E3        30.10F
INDIANAPOLIS   MOCLDY    73  55  53 SE7       30.07F
6HR MIN TEMP:  73; 6HR MAX TEMP:  80;

-EAGLE CREEK   PTCLDY    75  55  49 SE7       30.08F
6HR MIN TEMP:  75; 6HR MAX TEMP:  79;

KOKOMO *+      MOCLDY    70  57  64 SE5       30.09F
6HR MIN TEMP:  70; 6HR MAX TEMP:  79;

MT COMFORT *+  CLEAR     70  55  60 E3        30.11S
SHELBYVILLE    CLEAR     70  60  70 E5        30.08F
6HR MIN TEMP:  70; 6HR MAX TEMP:  81;

ZIONSVILLE +   PTCLDY    71  56  60 SE5       30.10F
6HR MIN TEMP:  71; 6HR MAX TEMP:  80;


$$

INZ033-034-041-042-049-050-058-059-290100-
EAST CENTRAL INDIANA

CITY           SKY/WX    TMP DP  RH WIND       PRES   REMARKS
MUNCIE         MOCLDY    71  56  58 S5        30.12S
6HR MIN TEMP:  71; 6HR MAX TEMP:  77;


$$

INZ060-061-067>069-081>083-085>088-290100-
SOUTHWEST INDIANA

CITY           SKY/WX    TMP DP  RH WIND       PRES   REMARKS
EVANSVILLE     PTCLDY    80  63  55 CALM      30.05S
6HR MIN TEMP:  78; 6HR MAX TEMP:  83;

HUNTINGBURG *+ CLEAR     75  63  64 CALM      30.07R
6HR MIN TEMP:  75; 6HR MAX TEMP:  82;


$$

INZ062-063-066-070>080-084-089>092-290100-
SOUTH CENTRAL AND SOUTHEAST INDIANA

CITY           SKY/WX    TMP DP  RH WIND       PRES   REMARKS
BLOOMINGTON    PTCLDY    73  60  63 CALM      30.08F
6HR MIN TEMP:  73; 6HR MAX TEMP:  79;

MADISON *+     PTCLDY    72  63  73 CALM      30.11S
SEYMOUR +      PTCLDY    73  63  68 E3        30.08S

$$




USA.gov is the U.S. government's official web portal to all federal, state and local government web resources and services.